YO8SDE Weather Reports


time (UTC)temp
C
wind
direction
speed
KPH
gust
KPH
rain 1hr
cm
rain 24hr
cm
rain mn
cm
humidity
%
barometer
mb
20260507064020 21 102 4.8 6.4 0.00 0.00 0.00 40 1003.0
20260507063520 21 173 3.2 9.7 0.00 0.00 0.00 40 1003.0
20260507063021 21 117 8.0 8.0 0.00 0.00 0.00 44 1003.0
20260507062522 20 191 4.8 6.4 0.00 0.00 0.00 46 1003.0
20260507062022 20 73 6.4 11.3 0.00 0.00 0.00 46 1003.0
20260507061522 19 84 12.9 12.9 0.00 0.00 0.00 46 1003.0
20260507061021 18 110 11.3 16.1 0.00 0.00 0.00 48 1003.0
20260507060521 19 62 12.9 12.9 0.00 0.00 0.00 48 1003.0
20260507060021 19 95 6.4 12.9 0.00 0.00 0.00 48 1003.0
20260507055520 18 174 6.4 9.7 0.00 0.00 0.00 48 1003.0
20260507055020 18 65 8.0 14.5 0.00 0.00 0.00 50 1003.0
20260507054520 18 124 3.2 6.4 0.00 0.00 0.00 49 1003.0
20260507054021 17 61 11.3 11.3 0.00 0.00 0.00 50 1003.0
20260507053520 17 100 11.3 11.3 0.00 0.00 0.00 51 1003.0
20260507053020 17 82 6.4 11.3 0.00 0.00 0.00 52 1003.0
20260507052520 17 78 1.6 3.2 0.00 0.00 0.00 52 1003.0
20260507052020 17 117 0.0 3.2 0.00 0.00 0.00 53 1003.0
20260507051523 17 130 6.4 8.0 0.00 0.00 0.00 54 1003.0
20260507051021 17 110 4.8 6.4 0.00 0.00 0.00 54 1003.0
20260507050520 16 107 6.4 8.0 0.00 0.00 0.00 57 1003.0
20260507050022 16 80 6.4 6.4 0.00 0.00 0.00 57 1003.0
20260507045521 16 123 1.6 6.4 0.00 0.00 0.00 58 1003.0
20260507045020 15 81 9.7 9.7 0.00 0.00 0.00 59 1003.0
20260507044520 15 104 6.4 11.3 0.00 0.00 0.00 59 1003.0
20260507044020 15 131 8.0 8.0 0.00 0.00 0.00 61 1003.0
20260507043522 15 135 3.2 6.4 0.00 0.00 0.00 61 1003.0
20260507043021 14 113 8.0 9.7 0.00 0.00 0.00 61 1003.0
20260507042521 14 112 9.7 9.7 0.00 0.00 0.00 61 1003.0
20260507042021 13 90 12.9 14.5 0.00 0.00 0.00 62 1003.0
20260507041521 14 155 3.2 4.8 0.00 0.00 0.00 61 1003.0
20260507041021 13 106 4.8 6.4 0.00 0.00 0.00 62 1003.0
20260507040520 13 131 8.0 9.7 0.00 0.00 0.00 63 1003.0
20260507040020 13 119 8.0 11.3 0.00 0.00 0.00 62 1003.0
20260507035520 13 75 4.8 6.4 0.00 0.00 0.00 62 1003.0
20260507035021 13 119 1.6 3.2 0.00 0.00 0.00 62 1003.0
20260507034521 13 84 6.4 8.0 0.00 0.00 0.00 62 1003.0
20260507034021 13 86 8.0 8.0 0.00 0.00 0.00 63 1003.0
20260507033520 13 88 6.4 6.4 0.00 0.00 0.00 63 1002.0
20260507033021 13 107 1.6 1.6 0.00 0.00 0.00 63 1002.0
20260507032521 13 105 1.6 3.2 0.00 0.00 0.00 63 1002.0
20260507032020 13 98 3.2 3.2 0.00 0.00 0.00 63 1002.0
20260507031520 12 106 8.0 8.0 0.00 0.00 0.00 64 1002.0
20260507031020 12 140 3.2 4.8 0.00 0.00 0.00 65 1002.0
20260507030520 12 127 4.8 4.8 0.00 0.00 0.00 65 1002.0
20260507030020 12 90 3.2 3.2 0.00 0.00 0.00 65 1002.0
20260507025520 12 88 0.0 0.0 0.00 0.00 0.00 65 1002.0
20260507025021 12 114 3.2 4.8 0.00 0.00 0.00 64 1002.0
20260507024520 12 136 4.8 4.8 0.00 0.00 0.00 63 1002.0
20260507024023 12 108 1.6 1.6 0.00 0.00 0.00 63 1002.0
20260507023523 12 137 0.0 0.0 0.00 0.00 0.00 62 1002.0
20260507023021 12 146 1.6 1.6 0.00 0.00 0.00 61 1002.0
20260507022521 13 116 1.6 1.6 0.00 0.00 0.00 60 1002.0
20260507022020 13 112 0.0 0.0 0.00 0.00 0.00 59 1002.0
20260507021521 13 124 1.6 1.6 0.00 0.00 0.00 58 1002.0
20260507021020 13 129 1.6 1.6 0.00 0.00 0.00 57 1002.0
20260507020522 14 90 4.8 4.8 0.00 0.00 0.00 56 1002.0
20260507020020 14 123 1.6 3.2 0.00 0.00 0.00 53 1002.0
20260507015522 15 75 1.6 1.6 0.00 0.00 0.00 52 1002.0
20260507015021 15 106 4.8 4.8 0.00 0.00 0.00 51 1002.0
20260507014520 15 95 4.8 8.0 0.00 0.00 0.00 49 1002.0
20260507014020 15 90 6.4 6.4 0.00 0.00 0.00 48 1002.0
20260507013520 15 146 3.2 6.4 0.00 0.00 0.00 48 1002.0
20260507013020 15 131 4.8 4.8 0.00 0.00 0.00 47 1002.0
20260507012521 15 150 4.8 4.8 0.00 0.00 0.00 47 1002.0
20260507012020 16 125 3.2 6.4 0.00 0.00 0.00 46 1002.0
20260507011521 16 93 4.8 8.0 0.00 0.00 0.00 46 1002.0
20260507011021 16 137 3.2 3.2 0.00 0.00 0.00 46 1002.0
20260507010520 16 146 6.4 8.0 0.00 0.00 0.00 45 1002.0
20260507010021 16 155 4.8 4.8 0.00 0.00 0.00 45 1002.0
20260507005520 16 155 6.4 8.0 0.00 0.00 0.00 45 1002.0
20260507005022 16 118 8.0 11.3 0.00 0.00 0.00 45 1002.0
20260507004520 16 96 4.8 4.8 0.00 0.00 0.00 45 1002.0
20260507004021 16 135 4.8 4.8 0.00 0.00 0.00 45 1002.0
20260507003520 16 124 3.2 8.0 0.00 0.00 0.00 45 1002.0
20260507003021 16 126 11.3 12.9 0.00 0.00 0.00 45 1002.0
20260507002520 16 116 3.2 8.0 0.00 0.00 0.00 45 1002.0
20260507002020 16 157 6.4 8.0 0.00 0.00 0.00 45 1002.0
20260507001521 16 154 4.8 6.4 0.00 0.00 0.00 45 1002.0
20260507001020 16 230 6.4 6.4 0.00 0.00 0.00 44 1002.0
20260507000521 16 118 9.7 17.7 0.00 0.00 0.00 44 1002.0
20260507000022 16 122 9.7 9.7 0.00 0.00 0.00 44 1002.0
20260506235520 16 124 3.2 9.7 0.00 0.00 0.00 44 1002.0
20260506235020 16 178 6.4 8.0 0.00 0.00 0.00 43 1002.0
20260506234520 17 174 8.0 14.5 0.00 0.00 0.00 43 1002.0
20260506234020 16 172 4.8 6.4 0.00 0.00 0.00 43 1002.0
20260506233520 16 122 11.3 14.5 0.00 0.00 0.00 44 1002.0
20260506233021 16 109 3.2 4.8 0.00 0.00 0.00 44 1002.0
20260506232520 17 147 4.8 6.4 0.00 0.00 0.00 44 1002.0
20260506232022 17 150 11.3 12.9 0.00 0.00 0.00 44 1002.0
20260506231521 17 152 8.0 8.0 0.00 0.00 0.00 44 1002.0
20260506231020 17 112 9.7 9.7 0.00 0.00 0.00 45 1002.0
20260506230521 17 166 6.4 6.4 0.00 0.00 0.00 45 1002.0
20260506230020 17 171 9.7 17.7 0.00 0.00 0.00 45 1002.0
20260506225520 17 174 11.3 17.7 0.00 0.00 0.00 45 1002.0
20260506225021 17 134 4.8 4.8 0.00 0.00 0.00 46 1002.0
20260506224520 17 213 6.4 6.4 0.00 0.00 0.00 46 1002.0
20260506224020 17 163 3.2 6.4 0.00 0.00 0.00 47 1002.0
20260506223520 17 140 6.4 8.0 0.00 0.00 0.00 46 1002.0
20260506223021 17 141 6.4 11.3 0.00 0.00 0.00 47 1002.0
20260506222521 17 147 6.4 8.0 0.00 0.00 0.00 48 1002.0
20260506222021 17 196 4.8 8.0 0.00 0.00 0.00 49 1002.0
20260506221521 17 193 6.4 8.0 0.00 0.00 0.00 50 1002.0
20260506221023 17 138 8.0 11.3 0.00 0.00 0.00 50 1002.0
20260506220520 17 235 8.0 8.0 0.00 0.00 0.00 50 1002.0
20260506220020 17 217 4.8 6.4 0.00 0.00 0.00 50 1002.0
20260506215521 17 134 8.0 14.5 0.00 0.00 0.00 51 1002.0
20260506215020 17 167 8.0 9.7 0.00 0.00 0.00 51 1002.0
20260506214521 17 135 6.4 6.4 0.00 0.00 0.00 50 1001.0
20260506214021 18 180 4.8 4.8 0.00 0.00 0.00 50 1001.0
20260506213520 18 135 4.8 8.0 0.00 0.00 0.00 50 1001.0
20260506213021 18 172 8.0 16.1 0.00 0.00 0.00 49 1001.0
20260506212520 18 236 14.5 14.5 0.00 0.00 0.00 49 1001.0
20260506212020 18 205 11.3 16.1 0.00 0.00 0.00 49 1001.0
20260506211520 18 194 3.2 9.7 0.00 0.00 0.00 49 1001.0
20260506211020 18 98 6.4 9.7 0.00 0.00 0.00 49 1001.0
20260506210520 18 183 6.4 8.0 0.00 0.00 0.00 49 1001.0
20260506210020 18 204 11.3 11.3 0.00 0.00 0.00 49 1001.0
20260506205520 18 98 6.4 9.7 0.00 0.00 0.00 49 1001.0
20260506205020 18 140 8.0 16.1 0.00 0.00 0.00 48 1001.0
20260506204520 18 155 8.0 12.9 0.00 0.00 0.00 48 1001.0
20260506204021 18 153 9.7 16.1 0.00 0.00 0.00 47 1001.0
20260506203520 19 165 14.5 22.5 0.00 0.00 0.00 47 1001.0
20260506203020 19 232 11.3 16.1 0.00 0.00 0.00 47 1001.0
20260506202520 19 131 12.9 14.5 0.00 0.00 0.00 47 1001.0
20260506202024 19 136 9.7 14.5 0.00 0.00 0.00 46 1001.0
20260506201520 19 184 8.0 8.0 0.00 0.00 0.00 47 1001.0
20260506201023 19 195 11.3 14.5 0.00 0.00 0.00 45 1001.0
20260506200521 20 160 19.3 29.0 0.00 0.00 0.00 45 1001.0
20260506200021 20 151 4.8 11.3 0.00 0.00 0.00 45 1001.0
20260506195520 20 129 11.3 14.5 0.00 0.00 0.00 45 1001.0
20260506195022 20 139 9.7 12.9 0.00 0.00 0.00 44 1001.0
20260506194520 20 194 12.9 19.3 0.00 0.00 0.00 44 1001.0
20260506194021 20 208 9.7 12.9 0.00 0.00 0.00 43 1001.0
20260506193520 20 176 8.0 9.7 0.00 0.00 0.00 44 1001.0
20260506193021 20 151 12.9 17.7 0.00 0.00 0.00 43 1001.0
20260506192520 20 195 9.7 9.7 0.00 0.00 0.00 43 1001.0
20260506192020 20 163 8.0 9.7 0.00 0.00 0.00 43 1001.0
20260506191522 20 110 8.0 8.0 0.00 0.00 0.00 42 1001.0
20260506191021 21 147 12.9 12.9 0.00 0.00 0.00 42 1001.0
20260506190521 21 328 8.0 9.7 0.00 0.00 0.00 42 1001.0
20260506190022 21 190 8.0 9.7 0.00 0.00 0.00 42 1000.0
20260506185520 21 176 4.8 8.0 0.00 0.00 0.00 42 1000.0
20260506185020 21 198 9.7 12.9 0.00 0.00 0.00 42 1000.0
20260506184520 21 175 9.7 12.9 0.00 0.00 0.00 41 1000.0
20260506184020 21 182 9.7 9.7 0.00 0.00 0.00 42 1000.0
20260506183520 21 146 8.0 9.7 0.00 0.00 0.00 41 1000.0
20260506183021 21 135 6.4 16.1 0.00 0.00 0.00 41 1000.0
20260506182520 21 161 6.4 12.9 0.00 0.00 0.00 41 1000.0
20260506182020 21 149 8.0 8.0 0.00 0.00 0.00 41 1000.0
20260506181521 21 190 3.2 4.8 0.00 0.00 0.00 40 1000.0
20260506181021 21 187 11.3 11.3 0.00 0.00 0.00 40 1000.0
20260506180520 22 189 6.4 8.0 0.00 0.00 0.00 39 1000.0
20260506180021 22 152 3.2 4.8 0.00 0.00 0.00 39 1000.0
20260506175521 22 208 8.0 9.7 0.00 0.00 0.00 39 1000.0
20260506175022 22 149 9.7 12.9 0.00 0.00 0.00 38 1000.0
20260506174521 22 158 4.8 4.8 0.00 0.00 0.00 38 1000.0
20260506174021 22 217 6.4 11.3 0.00 0.00 0.00 38 1000.0
20260506173521 22 150 6.4 8.0 0.00 0.00 0.00 38 1000.0
20260506173021 22 186 3.2 4.8 0.00 0.00 0.00 37 1000.0
20260506172529 23 204 4.8 6.4 0.00 0.00 0.00 37 1000.0
20260506172020 23 145 6.4 9.7 0.00 0.00 0.00 36 1000.0
20260506171520 23 124 6.4 9.7 0.00 0.00 0.00 35 1000.0
20260506171020 23 151 3.2 4.8 0.00 0.00 0.00 35 1000.0
20260506170521 24 156 4.8 4.8 0.00 0.00 0.00 34 1000.0
20260506170021 24 164 6.4 8.0 0.00 0.00 0.00 34 1000.0
20260506165520 24 174 6.4 6.4 0.00 0.00 0.00 33 1000.0
20260506165021 25 186 11.3 12.9 0.00 0.00 0.00 32 1000.0
20260506164521 25 162 9.7 12.9 0.00 0.00 0.00 32 1000.0
20260506164021 25 189 12.9 20.9 0.00 0.00 0.00 32 1000.0
20260506163521 25 179 6.4 9.7 0.00 0.00 0.00 32 1000.0
20260506163022 25 155 4.8 6.4 0.00 0.00 0.00 31 1000.0
20260506162520 26 210 8.0 9.7 0.00 0.00 0.00 30 1000.0
20260506162021 26 190 9.7 11.3 0.00 0.00 0.00 29 1000.0
20260506161521 26 172 9.7 9.7 0.00 0.00 0.00 29 1000.0
20260506161021 26 150 6.4 8.0 0.00 0.00 0.00 29 1000.0
20260506160523 26 165 8.0 8.0 0.00 0.00 0.00 28 1000.0
20260506160022 26 126 6.4 11.3 0.00 0.00 0.00 29 1000.0
20260506155521 26 163 14.5 16.1 0.00 0.00 0.00 29 1000.0
20260506155022 26 178 16.1 16.1 0.00 0.00 0.00 29 1000.0
20260506154520 26 123 9.7 14.5 0.00 0.00 0.00 28 1000.0
20260506154021 26 129 12.9 17.7 0.00 0.00 0.00 28 1000.0
20260506153521 26 120 12.9 17.7 0.00 0.00 0.00 28 999.0
20260506153022 27 124 4.8 6.4 0.00 0.00 0.00 28 999.0
20260506152520 27 183 11.3 14.5 0.00 0.00 0.00 27 1000.0
20260506152022 27 126 6.4 8.0 0.00 0.00 0.00 27 1000.0
20260506151521 27 217 11.3 11.3 0.00 0.00 0.00 27 1000.0
20260506151022 28 109 8.0 8.0 0.00 0.00 0.00 26 1000.0
20260506150520 28 123 8.0 8.0 0.00 0.00 0.00 25 1000.0
20260506150022 28 136 11.3 17.7 0.00 0.00 0.00 26 1000.0
20260506145522 28 164 6.4 8.0 0.00 0.00 0.00 25 1000.0
20260506145026 28 111 9.7 12.9 0.00 0.00 0.00 26 1000.0
20260506144040 28 134 6.4 6.4 0.00 0.00 0.00 25 1000.0
20260506143520 28 202 3.2 4.8 0.00 0.00 0.00 26 1000.0
20260506143020 28 218 11.3 16.1 0.00 0.00 0.00 25 1000.0
20260506142521 28 219 9.7 14.5 0.00 0.00 0.00 25 1000.0
20260506142021 29 210 6.4 6.4 0.00 0.00 0.00 24 1000.0
20260506141521 29 120 4.8 4.8 0.00 0.00 0.00 24 1000.0
20260506141021 28 207 8.0 9.7 0.00 0.00 0.00 24 1000.0
20260506140520 29 214 8.0 8.0 0.00 0.00 0.00 24 1000.0
20260506140021 28 222 6.4 8.0 0.00 0.00 0.00 24 1000.0
20260506135521 28 211 8.0 8.0 0.00 0.00 0.00 25 1000.0
20260506135020 29 229 6.4 6.4 0.00 0.00 0.00 24 1000.0
20260506134521 28 170 9.7 14.5 0.00 0.00 0.00 25 1000.0
20260506134021 28 163 11.3 11.3 0.00 0.00 0.00 25 1000.0
20260506133522 29 98 6.4 8.0 0.00 0.00 0.00 24 1000.0
20260506133021 29 180 12.9 12.9 0.00 0.00 0.00 24 1000.0
20260506132520 29 171 9.7 11.3 0.00 0.00 0.00 24 1000.0
20260506132021 29 201 4.8 6.4 0.00 0.00 0.00 25 1000.0
20260506131521 28 193 17.7 24.1 0.00 0.00 0.00 24 1000.0
20260506131022 29 204 11.3 16.1 0.00 0.00 0.00 24 1000.0
20260506130521 29 132 6.4 9.7 0.00 0.00 0.00 24 1000.0
20260506130021 29 103 6.4 8.0 0.00 0.00 0.00 24 1000.0
20260506125522 29 199 8.0 12.9 0.00 0.00 0.00 24 1000.0
20260506125020 29 162 14.5 22.5 0.00 0.00 0.00 24 1000.0
20260506124521 29 144 12.9 16.1 0.00 0.00 0.00 24 1000.0
20260506124022 29 206 8.0 8.0 0.00 0.00 0.00 24 1000.0
20260506123524 28 190 12.9 14.5 0.00 0.00 0.00 24 1000.0
20260506123022 29 180 9.7 11.3 0.00 0.00 0.00 25 1000.0
20260506122521 30 148 4.8 9.7 0.00 0.00 0.00 23 1000.0
20260506122021 29 132 8.0 14.5 0.00 0.00 0.00 23 1000.0
20260506121520 30 138 3.2 9.7 0.00 0.00 0.00 23 1000.0
20260506121021 29 219 6.4 8.0 0.00 0.00 0.00 23 1000.0
20260506120522 28 129 12.9 16.1 0.00 0.00 0.00 23 1000.0
20260506120021 29 213 9.7 9.7 0.00 0.00 0.00 23 1000.0
20260506115520 28 210 16.1 22.5 0.00 0.00 0.00 24 1000.0
20260506115021 28 214 8.0 8.0 0.00 0.00 0.00 23 1000.0
20260506114521 28 209 9.7 9.7 0.00 0.00 0.00 24 1000.0
20260506114020 29 77 4.8 9.7 0.00 0.00 0.00 24 1000.0
20260506113520 29 168 9.7 9.7 0.00 0.00 0.00 23 1000.0
20260506113020 29 218 6.4 8.0 0.00 0.00 0.00 24 1000.0
20260506112520 28 131 8.0 9.7 0.00 0.00 0.00 23 1000.0
20260506112020 28 181 8.0 8.0 0.00 0.00 0.00 24 1000.0
20260506111520 28 270 8.0 11.3 0.00 0.00 0.00 23 1000.0
20260506111023 29 187 3.2 9.7 0.00 0.00 0.00 24 1000.0
20260506110520 29 115 4.8 9.7 0.00 0.00 0.00 24 1000.0
20260506110021 29 174 6.4 8.0 0.00 0.00 0.00 24 1000.0
20260506105521 28 180 8.0 8.0 0.00 0.00 0.00 24 1000.0
20260506105022 28 122 3.2 8.0 0.00 0.00 0.00 24 1000.0
20260506104522 29 133 3.2 6.4 0.00 0.00 0.00 24 1000.0
20260506104020 28 163 11.3 11.3 0.00 0.00 0.00 25 1000.0
20260506103520 28 61 9.7 11.3 0.00 0.00 0.00 26 1000.0
20260506103022 27 222 14.5 16.1 0.00 0.00 0.00 26 1000.0
20260506102520 28 167 4.8 11.3 0.00 0.00 0.00 26 1000.0
20260506102020 28 232 6.4 8.0 0.00 0.00 0.00 26 1001.0
20260506101520 27 238 6.4 8.0 0.00 0.00 0.00 26 1001.0
20260506101021 28 214 8.0 8.0 0.00 0.00 0.00 27 1001.0
20260506100520 28 221 8.0 14.5 0.00 0.00 0.00 26 1001.0
20260506100022 28 197 8.0 16.1 0.00 0.00 0.00 28 1001.0
20260506095520 27 197 4.8 12.9 0.00 0.00 0.00 29 1001.0
20260506095020 28 114 6.4 9.7 0.00 0.00 0.00 26 1001.0
20260506094521 28 194 4.8 6.4 0.00 0.00 0.00 29 1001.0
20260506094020 28 215 4.8 9.7 0.00 0.00 0.00 28 1001.0
20260506093521 28 222 3.2 9.7 0.00 0.00 0.00 28 1001.0
20260506093020 28 174 6.4 8.0 0.00 0.00 0.00 29 1001.0
20260506092521 27 197 14.5 14.5 0.00 0.00 0.00 29 1001.0
20260506092021 28 167 3.2 3.2 0.00 0.00 0.00 28 1001.0
20260506091520 27 116 3.2 4.8 0.00 0.00 0.00 29 1001.0
20260506091020 27 181 4.8 4.8 0.00 0.00 0.00 29 1001.0
20260506090521 27 214 4.8 4.8 0.00 0.00 0.00 29 1001.0
20260506090020 28 171 3.2 3.2 0.00 0.00 0.00 30 1001.0
20260506085521 26 123 12.9 14.5 0.00 0.00 0.00 30 1001.0
20260506085021 27 123 3.2 4.8 0.00 0.00 0.00 29 1001.0
20260506084520 26 100 9.7 12.9 0.00 0.00 0.00 31 1001.0
20260506084020 26 217 3.2 4.8 0.00 0.00 0.00 32 1001.0
20260506083520 26 168 8.0 11.3 0.00 0.00 0.00 32 1001.0
20260506083020 25 198 4.8 6.4 0.00 0.00 0.00 32 1001.0
20260506082520 25 100 6.4 11.3 0.00 0.00 0.00 33 1001.0
20260506082020 25 109 4.8 8.0 0.00 0.00 0.00 33 1001.0
20260506081520 25 126 6.4 6.4 0.00 0.00 0.00 33 1001.0
20260506081021 25 140 4.8 6.4 0.00 0.00 0.00 33 1001.0
20260506080520 25 114 3.2 3.2 0.00 0.00 0.00 33 1001.0
20260506073520 24 159 3.2 3.2 0.00 0.00 0.00 33 1001.0
20260506073021 24 156 3.2 3.2 0.00 0.00 0.00 34 1001.0
20260506072520 23 88 1.6 4.8 0.00 0.00 0.00 36 1001.0
20260506072021 22 119 3.2 4.8 0.00 0.00 0.00 38 1001.0
20260506071521 22 95 9.7 12.9 0.00 0.00 0.00 40 1001.0
20260506071020 22 175 3.2 3.2 0.00 0.00 0.00 38 1001.0
20260506070521 21 102 4.8 6.4 0.00 0.00 0.00 40 1001.0